ONEWEB-0019 (45449 NORAD) Tracking and Keplerian Element Data

This shows tracking and keplerian element data for the satellite.

Feedback or suggestion? Click here.




ElementValue
Catalog45449
NameONEWEB-0019
Epoch Orbit159
Epoch Day93.91667824
Epoch Year2020
RAAN134.5971
Inclination87.3984
Eccentricity0.0025344
Argument of Perigee258.2348
Mean Anonmoly216.7337
Mean Motion15.35214046
Decay Rate0.00041363
L11 45449U 20020AB 20093.91667824 .00041363 00000-0 11929-2 0 9998
L22 45449 87.3984 134.5971 0025344 258.2348 216.7337 15.35214046 1592

Live tracking and technical data element details for ONEWEB-0019 (NORAD 45449). ONEWEB-0019 can be tracked NOW for your location showing map with azimuth and elevation plus other details from your city location.

Track the satellite on the map from your city or location and see movement details for azimuth, elevation, latitude, longitude, range, height, and movement on the map or in text.







IsCatalogInMostPopularTable: catalog: 45449, numindb: 6
Update: records affected: 1



GetName: 45449 ONEWEB-0019

Hit Count: updated at: Tue, 07 Apr 2020 16:43:17 GMT